Location: ??????????
(54.4061°N, 22.6114°E)
Time: 02:58:09
(UTC+00:00)

Cosmos 2297 - Pass Details

Date: 23 October 2019
Orbit: 834 x 860 km, 71.0° (Epoch: 16 November)

Event Time Altitude Azimuth Distance (km) Brightness Sun altitude
Rises 18:18:10 0° 222° (SW) 3,408 7.1 -27.2°
Reaches altitude 10° 18:20:37 10° 226° (SW) 2,480 6.4 -27.5°
Maximum altitude 18:26:17 65° 307° (NW) 945 4.0 -28.3°
Enters shadow 18:29:21 28° 21° (NNE) 1,565 5.0 -28.7°
